Content
SEND FEEDBACK

Daily
Averages
Monthly
Summary
Belarus

CHERNE, BELARUS


Home > Europe > Belarus
Elevation: 479 feet     Latitude: 52 01N     Longitude: 023 40E

WEATHER
 
SELECT A DAY
Number of Records: 121,204;   Date Range: 12/20/99 - 12/17/14
 
SHARE

PRINT THIS DATA

[ ← Previous Day ]
WEATHER ALMANAC - JANUARY 31, 2013
[ Next Day → ]
[ °C ]   °F
Weather ElementAverageHighLow
Temperature37.7 °F40 °F (6:00 am)37 °F (9:00 am)
Dewpoint35.2 °F39 °F (6:00 am)31 °F (9:00 pm)
Humidity89.7 %100 % (7:00 am)63 % (9:00 pm)
Barometer29.55 in29.60 in (12:00 pm)29.47 in (5:00 am)
Wind Speed11.3 mph17.9 mph (2:30 pm)
Wind Gust29.1 mph (2:30 pm)
Weather ElementAverage
Visibility4.8 mi
Wind DirectionWSW (253.2 °)

Weather ElementTotal
Precipitation---
Heating Degree Days26.5 (Base 65)
Averaged from 28 records on January 31, 2013
WEATHER CONDITIONS BREAKOUT
WIND DIRECTION BREAKOUT
WEATHER BY HOUR - JANUARY 31, 2013
[ °C ]   °F
Local TimeTemperatureDewpointHumidityBarometerVisibilityWind DirectionWind SpeedGust SpeedPrecipitationEventsConditions
3:00 AM39.0 °F38.0 °F94 %29.49 in1.0 miWSW (240°)4.5 mphMist
5:00 AM39.2 °F37.4 °F93 %29.47 inWSW (250°)8.9 mph15.7 mphRainLight Rain Showers
6:00 AM40.0 °F39.0 °F93 %29.54 in3.0 miWest (270°)4.5 mphMist
6:00 AM39.2 °F37.4 °F93 %29.50 in3.7 miWest (260°)8.9 mph15.7 mphOvercast
7:00 AM37.4 °F37.4 °F100 %29.53 in3.7 miWest (260°)11.2 mph17.9 mphOvercast
8:00 AM37.4 °F37.4 °F100 %29.56 in3.7 miWest (270°)13.4 mph20.1 mphMostly Cloudy
8:30 AM37.4 °F37.4 °F100 %29.56 in3.7 miWest (260°)8.9 mph15.7 mphMostly Cloudy
9:00 AM37.4 °F37.4 °F100 %29.56 in3.7 miWSW (250°)8.9 mph15.7 mphMostly Cloudy
9:00 AM37.0 °F35.0 °F92 %29.59 in6.0 miWSW (250°)4.5 mphPartly Cloudy
9:30 AM37.4 °F37.4 °F100 %29.56 in3.7 miWest (270°)8.9 mph15.7 mphMostly Cloudy
10:00 AM37.4 °F35.6 °F93 %29.56 in5.0 miWSW (250°)8.9 mph15.7 mphOvercast
10:30 AM37.4 °F35.6 °F93 %29.56 in5.6 miWSW (250°)8.9 mph15.7 mphOvercast
11:00 AM37.4 °F33.8 °F87 %29.56 in5.6 miWSW (250°)8.9 mph15.7 mphMostly Cloudy
11:30 AM37.4 °F33.8 °F87 %29.56 in6.2 miWSW (250°)13.4 mph20.1 mphOvercast
12:00 PM37.4 °F33.8 °F87 %29.56 in6.2 miWest (260°)13.4 mph20.1 mphOvercast
12:00 PM38.0 °F35.0 °F83 %29.60 in6.0 miWest (260°)8.9 mphMostly Cloudy
12:30 PM37.4 °F33.8 °F87 %29.56 in6.2 miWSW (250°)13.4 mph20.1 mphOvercast
1:00 PM37.4 °F33.8 °F87 %29.56 in6.2 miWest (260°)13.4 mph20.1 mphOvercast
1:30 PM37.4 °F33.8 °F87 %29.56 in6.2 miWest (260°)13.4 mph20.1 mphOvercast
2:00 PM37.4 °F33.8 °F87 %29.53 in6.2 miWSW (250°)11.2 mph17.9 mphRainLight Rain Showers
2:30 PM37.4 °F33.8 °F87 %29.53 in4.3 miWSW (240°)17.9 mph29.1 mphRainLight Rain Showers
3:00 PM37.4 °F33.8 °F87 %29.53 in3.7 miWSW (240°)17.9 mph29.1 mphRainLight Rain Showers
3:00 PM37.0 °F34.0 °F86 %29.60 in5.0 miWSW (240°)11.2 mphRainLight Rain
3:30 PM37.4 °F33.8 °F87 %29.56 in5.0 miWSW (250°)17.9 mph29.1 mphRainLight Rain Showers
4:00 PM37.4 °F33.8 °F87 %29.56 in5.0 miWSW (250°)17.9 mph29.1 mphRainLight Rain Showers
4:30 PM37.4 °F33.8 °F87 %29.56 in5.0 miWSW (250°)17.9 mph29.1 mphRainLight Rain Showers
6:00 PM37.0 °F34.0 °F85 %29.57 in5.0 miWSW (250°)11.2 mphRainLight Rain
9:00 PM39.0 °F31.0 °F63 %29.55 in6.0 miWSW (250°)8.9 mphPartly Cloudy
Hourly data recorded from UMBB, located miles away from Cherne, Belarus







STORIES FROM OUR PARTNERS